Satellite-Ground Cal/Val Site Overpasses Predictions

Prediction of Satellite NPP Overpassing Cal/Val Site: Antarctic Dome C

Ground Cal/Val Site Location: Latitude: -75.10, Longitude: 123.35; Satellite-Ground Site NADIR distance within 100 km.

Table of predicted overpasses for the next 14.0 days since TLE Epoch: 10/24/2020
Interval Starting Time Ending Time Minimum Distance Time Minimum Distance (km)
1 10/25/2020 15:01:14 10/25/2020 15:01:38 10/25/2020 15:01:26 56.14
2 10/26/2020 14:42:23 10/26/2020 14:42:48 10/26/2020 14:42:35 53.00
3 10/27/2020 07:44:04 10/27/2020 07:44:24 10/27/2020 07:44:14 72.74
4 10/28/2020 07:25:10 10/28/2020 07:25:37 10/28/2020 07:25:24 35.28
5 10/30/2020 15:07:35 10/30/2020 15:07:44 10/30/2020 15:07:39 93.87
6 10/31/2020 14:48:35 10/31/2020 14:49:04 10/31/2020 14:48:49 17.41
7 11/02/2020 07:31:23 11/02/2020 07:31:52 11/02/2020 07:31:38 2.56
8 11/05/2020 14:54:49 11/05/2020 14:55:18 11/05/2020 14:55:03 19.03
